Terminal Aerodrome Forecast
Issued by NWS

Home | Current Version | Previous Version | Text Only | Print | Product List | Glossary Off
Versions: 1 2 3 4 5 6 7 8 9 10 11 12 13 14 15 16 17 18

000
FTUS43 KICT 180200 AAB
TAFRSL
TAF AMD
KRSL 180208Z 1802/1824 17008KT P6SM VCTS BKN080CB
      TEMPO 1802/1804 34025G40KT +TSRA BKN080CB
     FM180500 17008KT P6SM SCT250
     FM181500 22010KT P6SM SCT250
     FM182000 27006KT P6SM SCT250=

USA.gov is the U.S. government's official web portal to all federal, state and local government web resources and services.